Weather in Maralikha

Russia / Altai Krai     51°36′49″N   82°56′35″E
temp.,
°C
wind,
m/s
gust,
m/s
humid.,
%
clouds,
%
prec.,
mm/h
press.,
hPa
HPBL,
m
12 april, mon
mon1201:00−5e119831 0.0 103610
04:00−5e119817 0.0 103510
07:00−6ese119510 0.0 103510
10:00+1ne118451 0.0 103468
13:00+4nnw11849 0.0 1033138
16:00+6nnw21757 0.0 1032189
19:00+4nnw11906 0.0 103311
22:00+2s118368 0.0 103310
13 april, tue
tue1301:00+2ssw117714 0.0 103110
04:00+1sw117465 0.0 103110
07:00+1sw117398 0.0 103110
10:00+4wnw1262100 0.0 1031207
13:00+3nw3377100 0.1 1032374
16:00+1nw1293100 0.0 1034305
19:00+1nnw1299100 0.1 1036256
22:00+1ne1195100 0.0 103713
14 april, wed
wed1401:000nne01835 0.0 103710
04:00−1nnw00875 0.0 103710
07:00−1ne00905 0.0 103810
10:00+2nne11725 0.0 1037339
13:00+5nne22570 0.0 1035613
16:00+7n22585 0.0 1033628
19:00+5n117023 0.0 103122
22:00+3sse1175100 0.0 103110
15 april, thu
thu1501:00+2sse2273100 0.0 102911
04:00+2sse227191 0.0 102810
07:00+2sse22711 0.0 102710
10:00+7sse01565 0.0 1026239
13:00+11nnw11460 0.0 1025707
16:00+12nnw22420 0.0 1023903
19:00+11n22530 0.0 1022494
22:00+8e11675 0.0 102210
16 april, fri
fri1601:00+6sse21725 0.0 102110
04:00+5sse22755 0.0 102010
07:00+4sse22765 0.0 102011
10:00+10se11565 0.0 1019227
13:00+15n11411 0.0 1017959
16:00+16n12330 0.0 10161317
19:00+15nne33410 0.0 1015214
22:00+10ene11570 0.0 101510